This is the latest recevied weather packets stored in our database for station/object IU7URP-17. If no packets are shown the sender has not sent any weather packets the latest 10 day(s).
| Time | Temp. | Humidity | Pressure | Rain* | Wind** | Luminosity | Snow |
|---|---|---|---|---|---|---|---|
| 1787929090 | 39.44° C | 23% | 1015.3 hPa | - | - | - | - |
| 1787927886 | 38.89° C | 24% | 1015.4 hPa | - | - | - | - |
| 1787926682 | 38.89° C | 24% | 1015.6 hPa | - | - | - | - |
| 1787925478 | 39.44° C | 24% | 1015.8 hPa | - | - | - | - |
| 1787924274 | 39.44° C | 24% | 1015.9 hPa | - | - | - | - |
| 1787923070 | 39.44° C | 25% | 1016.1 hPa | - | - | - | - |
| 1787921866 | 38.33° C | 25% | 1016.3 hPa | - | - | - | - |
| 1787920662 | 38.89° C | 25% | 1016.3 hPa | - | - | - | - |
| 1787919458 | 38.89° C | 25% | 1016.7 hPa | - | - | - | - |
| 1787918254 | 38.89° C | 26% | 1016.8 hPa | - | - | - | - |
| 1787917050 | 38.89° C | 26% | 1016.9 hPa | - | - | - | - |
| 1787914642 | 38.33° C | 26% | 1017.4 hPa | - | - | - | - |
| 1787913437 | 38.33° C | 27% | 1017.3 hPa | - | - | - | - |
| 1787912233 | 37.78° C | 30% | 1017.6 hPa | - | - | - | - |
| 1787911029 | 37.22° C | 30% | 1017.8 hPa | - | - | - | - |
| 1787909825 | 37.22° C | 32% | 1017.8 hPa | - | - | - | - |
| 1787908621 | 36.67° C | 33% | 1018.2 hPa | - | - | - | - |
| 1787907417 | 36.11° C | 34% | 1018.3 hPa | - | - | - | - |
| 1787906213 | 35° C | 35% | 1018.3 hPa | - | - | - | - |
| 1787905009 | 35° C | 37% | 1018.2 hPa | - | - | - | - |
| 1787903805 | 34.44° C | 40% | 1018.1 hPa | - | - | - | - |
| 1787902601 | 33.33° C | 41% | 1018.1 hPa | - | - | - | - |
| 1787901397 | 33.33° C | 41% | 1018.1 hPa | - | - | - | - |
| 1787900192 | 32.22° C | 42% | 1018.2 hPa | - | - | - | - |
| 1787898988 | 31.67° C | 48% | 1017.9 hPa | - | - | - | - |
* Rain since midnight (hover to see other rain measurements)
** Current wind speed in m/s (hover to see current wind gust speed)